Hixson, TN (37343)

5:48 AM EST on February 23, 2017 (GMT -0500)
Colonial Shores - Hixson | | Change Station
Active Advisory: Dense Fog Advisory

Elev 843 ft 35.13 °N, 85.20 °W | Updated 4 seconds ago

Overcast
Overcast
53.8 °F
Feels Like 53.8 °F
N
0.0
Wind Variable Wind from NW
Gusts 0.0 mph

Today
High -- | Low -- °F
--% Chance of Precip.
Yesterday
High -- | Low -- °F
Precip. -- in
Pressure 29.89 in
Visibility 7.0 miles
Clouds Few 200 ft
Overcast 2400 ft
Dew Point 53 °F
Humidity 97%
Rainfall 0.00 in
Snow Depth Not available.
7:17 AM 6:31 PM
Waning Crescent, 11% visible
SPECI KCHA 231046Z AUTO 00000KT 7SM FEW002 OVC024 12/11 A2989 RMK AO2 T01170111
Pressure 29.89 in
Visibility 7.0 miles
Clouds Few 200 ft
Overcast 2400 ft
Dew Point 53 °F
Humidity 97%
Rainfall 0.00 in
Snow Depth Not available.
7:17 AM 6:31 PM
Waning Crescent, 11% visible
SPECI KCHA 231046Z AUTO 00000KT 7SM FEW002 OVC024 12/11 A2989 RMK AO2 T01170111

Get Your Daily Forecast Email!

Thanks for signing up!

Be on the lookout for a verification email in your inbox.

You'll start receiving the daily forecast at 8 AM.

×

10-Day Weather Forecast

Almanac

Astronomy

Feb. 23, 2017 Rise Set
Actual Time
Civil Twilight
Nautical Twilight
Astronomical Twilight
Moon
Length of Visible Light
Length of Day
Tomorrow will be .
, % of the Moon is Illuminated

Today's Extremes

State Highs State Lows

Community

WunderPhotos

Upload Photos

1,962,540 photos uploaded!

WunderBlog® & News

Nearby

Air Quality

  Air Quality AQ Index Pollutant
Not available.

Snow Depth

Station Depth Elevation

Earthquake Activity

City Distance Mag. Time & Date
Minimum magnitude displayed is 2.5.

Coastal Water Temperatures

Place Temperature

Stations

Nearby Weather Stations

Station Location Temp. Windchill Dew Point Humidity Wind Precip. Elev Updated Type
                   

Watches & Warnings

Dense Fog Advisory
Issued: 2:03 AM CST Feb. 23, 2017 – National Weather Service

... Dense fog advisory in effect until 10 am EST /9 am CST/ this
morning...

The National Weather Service in Morristown has issued a dense fog
advisory, which is in effect until 10 am EST /9 am CST/ this
morning.

* Visibility... as low as one quarter mile or less.

* Impacts... poor visibilities will affect traveling overnight
and through the mid morning hours.

Precautionary/preparedness actions...

A dense fog advisory means visibilities will frequently be
reduced to less than one quarter mile. If driving... slow down...
use your headlights... and leave plenty of distance ahead of you.